Hourly Data Report for September 12, 2017

All times are specified in Local Standard Time (LST). Add 1 hour to adjust for Daylight Saving Time where and when it is observed.

ABBOTSFORD A
BRITISH COLUMBIA

49°01'31.000" N
122°21'36.000" W
59.10 m
1100031
71108
YXX

Download Data

Hourly Data (September 2017)
Hourly Data Report for September 12, 2017
Temp Definition
°C
Dew Point Temp Definition
°C
Rel Hum Definition
%
Wind Dir Definition
10's deg

Wind Spd Definition
km/h
Visibility Definition
km
Stn Press Definition
kPa
Hmdx Definition


Wind Chill Definition


Weather Definition


TIME
00:00 Legend Double Dagger 14.9 11.5 80 22 3 24.1 100.92     LegendNANA
01:00 Legend Double Dagger 14.4 11.4 82 26 4 24.1 100.93     Mainly Clear
02:00 Legend Double Dagger 14.5 12.1 85 15 6 24.1 100.93     LegendNANA
03:00 Legend Double Dagger 13.8 12.4 91 16 6 24.1 100.91     LegendNANA
04:00 Legend Double Dagger 13.7 12.4 92 21 5 24.1 100.90     Cloudy
05:00 Legend Double Dagger 14.1 12.8 92 18 4 12.9 100.88     LegendNANA
06:00 Legend Double Dagger 14.6 13.8 95 23 6 9.7 100.92     Fog
07:00 Legend Double Dagger 15.8 14.7 93 20 9 4.8 100.93     Fog
08:00 Legend Double Dagger 16.0 14.8 92 20 10 4.8 100.91     Fog
09:00 Legend Double Dagger 16.5 14.8 89 19 12 9.7 100.93     Fog
10:00 Legend Double Dagger 17.3 14.6 84 22 12 16.1 100.92     Cloudy
11:00 Legend Double Dagger 19.8 14.6 72 21 8 24.1 100.86     LegendNANA
12:00 Legend Double Dagger 19.6 14.4 72 24 16 24.1 100.87     LegendNANA
13:00 Legend Double Dagger 20.2 14.2 68 21 18 24.1 100.85     Cloudy
14:00 Legend Double Dagger 21.3 12.9 58 21 17 48.3 100.81     LegendNANA
15:00 Legend Double Dagger 22.0 12.0 53 22 16 48.3 100.73     LegendNANA
16:00 Legend Double Dagger 22.5 12.3 52 21 17 48.3 100.71 25   Mostly Cloudy
17:00 Legend Double Dagger 21.4 11.5 53 24 17 48.3 100.69     LegendNANA
18:00 Legend Double Dagger 19.1 12.7 66 26 12 48.3 100.68     LegendNANA
19:00 Legend Double Dagger 17.5 10.2 62 26 10 32.2 100.69     Mostly Cloudy
20:00 Legend Double Dagger 16.2 10.8 70 16 10 24.1 100.71     LegendNANA
21:00 Legend Double Dagger 15.5 11.9 79 18 12 24.1 100.72     LegendNANA
22:00 Legend Double Dagger 14.9 11.3 79 18 4 24.1 100.71     Mostly Cloudy
23:00 Legend Double Dagger 15.4 11.0 75 17 11 24.1 100.74     LegendNANA

Notes on Data Quality.

Legend

  • E = Estimated
  • M = Missing
  • NA = Not Available
  • ‡ = Partner data that is not subject to review by the National Climate Archives
Date modified: